Location: Unspecified
(51.0950°N, 12.9690°E)
Time: 08:23:02
(UTC+00:00)

PCSat - Pass Details

Date: 20 April 2024
Orbit: 783 x 792 km, 67.1° (Epoch: 27 May)

Event Time Altitude Azimuth Distance (km) Brightness Sun altitude
Rises 20:12:08 0° 243° (WSW) 3,275 13.0 -16.5°
Reaches altitude 10° 20:14:41 10° 251° (WSW) 2,350 12.3 -16.8°
Maximum altitude 20:19:44 39° 320° (NW) 1,169 11.0 -17.3°
Drops below altitude 10° 20:24:49 10° 29° (NNE) 2,367 12.3 -17.9°
Sets 20:27:25 0° 37° (NE) 3,300 12.9 -18.1°
